DELTA 1 DEB

Satellite information

Favourite Embed

Satellite Type and Status

DEBRISIN ORBIT

Key statistics

Satellite DELTA 1 DEB at a glance.

Uptime

17937

Days in orbit

Revolutions

≈ 13.1

Per day

Orbit

SSO

Sun Synchronous Orbit

Inclination

101.6

Latest

Satellite identification and parameters

Extended collection of information and parameters for DELTA 1 DEB.

Object identification

Identified? True

Debris? True

Object name: DELTA 1 DEB

International designator: 1976-077AJ

Object number (NORAD): 10713

Object ID (CCSDS): 10713

Country: UNITED STATES OF AMERICA (US)

Current information (Y/N): Y

RCS size: SMALL

Orbital parameters

Period: 110.204 minutes

Inclination: 101.5537 deg

SMA: 7614.206 km

Apoapsis: 1334.519 km

Periapsis: 1137.622 km

RAAN: 56.5606 deg

Eccentricy: 0.01292956

Argument of periapsis: 137.3675 deg

Mean anomaly: 280.244 deg

Mean motion: 13.06669826 rev/day

Mean motion (dot): 0.00002234 rev/day2

B* drag term: 0.0066218486 1/REarth

Two-line elements (TLE)

Creation date: Sept. 7, 2025, 3:09 a.m.

Reference frame: TEME

Reference center: EARTH

Epoch: Sept. 6, 2025, 10:20 a.m. UTC

TLE line 0: 0 DELTA 1 DEB

TLE line 1: 1 10713U 76077AJ 25249.43056178 .00002234 00000-0 66218-2 0 9991

TLE line 2: 2 10713 101.5537 56.5606 0129296 137.3675 280.2440 13.06669826290508

Live tracking on map

Real-time ground track for satellite DELTA 1 DEB.

In-orbit conjunctions

A list of the most updated potential collisions computed for object DELTA 1 DEB.

Target Orbit TCA Probability of collision Miss distance Type
METEOR 3-5 LEO 2025-01-11 07:25:25 0.003293187 24.0 (m) PAYLOAD

Associated space launch

Meteorological satellite using radiometric imaging

DELTA 1 DEB was lifted into orbit during the mission ‘Delta 2310 | NOAA 5’, on board a Delta 2310 space rocket.

The launch took place on July 29, 1976, 5:07 p.m. from Space Launch Complex 2W.

For more information about the launch, click the button.

Launch to space Delta 2310 | NOAA 5
Delta 2310 | NOAA 5

Agency: N/A

Status: Launch Successful

Launch date: July 29, 1976, 5:07 p.m. UTC

Rocket: Delta 2310

Launch pad: Space Launch Complex 2W

Location: Vandenberg SFB, CA, USA

...

Latest news about this satellite

There are no fresh news available about this satellite. Check back as we update our databases every day.


Newsletter sign-up

Weekly statistics, charts and insights to help you stay on top of the space industry.